Location: Buffign�court
(47.8126°N, 6.0176°E)
Time: 15:07:22
(UTC+00:00)

Cosmos 2219 Rocket - Pass Details

Date: 16 June 2021
Orbit: 829 x 845 km, 71.0° (Epoch: 01 August)

Event Time Altitude Azimuth Distance (km) Brightness Sun altitude
Exits shadow 23:05:57 - 234° (SW) 2,760 4.6 -18.5°
Reaches altitude 10° 23:06:47 10° 237° (WSW) 2,465 4.4 -18.5°
Maximum altitude 23:12:07 41° 307° (NW) 1,214 3.3 -18.6°
Drops below altitude 10° 23:17:28 10° 17° (NNE) 2,475 5.7 -18.7°
Sets 23:20:05 0° 25° (NNE) 3,411 6.4 -18.7°
